Total_Precipitation_Accumulation
3.28 3.41 3.41 3.40 3.14 3.10 3.09 2.96 2.76 2.82 2.74 2.48 2.19 2.15 2.21 2.18 2.30 2.54 2.65 2.82 2.85 3.23 3.78 4.08 4.09 4.10 4.31 4.40 4.16 3.95 3.76 3.60 3.44 3.06 2.74 2.57 2.44 2.38 2.17 2.07 2.01 1.93 1.98
3.56 3.66 3.63 3.60 3.50 3.37 3.39 3.21 3.01 3.19 3.08 2.95 2.71 2.56 2.46 2.53 2.51 2.58 2.79 2.98 2.93 2.95 3.33 3.75 4.00 4.22 4.53 4.62 4.42 3.98 3.74 3.74 3.82 3.58 3.22 2.92 2.65 2.53 2.39 2.28 2.15 2.03 1.99
3.55 3.75 3.90 3.83 3.82 3.70 3.66 3.59 3.54 3.64 3.34 3.16 2.96 2.82 2.78 2.86 2.79 2.70 2.85 3.02 2.97 3.06 3.13 3.21 3.41 3.68 4.11 4.45 4.55 4.38 3.99 3.77 3.82 3.84 3.66 3.33 2.99 2.79 2.64 2.49 2.41 2.35 2.25
3.54 3.91 4.03 4.05 4.14 4.05 4.11 4.18 4.08 3.95 3.82 3.56 3.31 2.96 2.83 2.98 2.96 2.94 2.96 2.97 3.15 3.08 3.12 3.02 3.07 3.18 3.56 4.09 4.32 4.54 4.53 4.36 4.09 3.89 3.78 3.58 3.37 3.14 2.90 2.65 2.52 2.51 2.48
4.07 4.24 4.32 4.42 4.50 4.57 4.61 4.40 4.56 4.33 4.23 4.02 3.54 3.25 2.97 2.87 2.88 2.81 2.92 2.83 2.95 3.05 3.17 3.10 3.06 3.10 3.34 3.90 4.22 4.55 4.72 4.73 4.61 4.25 3.97 3.77 3.68 3.50 3.25 3.00 2.79 2.64 2.57
4.80 4.94 4.83 4.91 4.99 5.07 4.96 4.95 5.04 4.81 4.45 4.36 3.84 3.54 3.26 2.97 2.95 2.92 2.91 3.02 2.88 2.70 2.90 3.08 3.24 3.07 3.29 3.54 3.89 4.34 4.57 4.75 4.77 4.54 4.39 4.26 4.02 3.76 3.38 3.04 2.80 2.68 2.62
5.80 5.87 5.57 5.60 5.54 5.41 5.20 5.19 5.09 4.83 4.51 4.48 4.34 3.87 3.23 2.83 2.77 2.66 2.65 2.87 2.83 2.71 2.81 2.99 3.07 2.95 2.84 3.02 3.19 3.60 4.11 4.56 4.89 4.80 4.61 4.40 4.08 3.84 3.56 3.24 2.99 2.84 2.70
6.66 6.71 6.69 6.43 6.23 5.97 5.49 5.13 4.98 4.73 4.34 4.47 4.52 4.50 3.76 3.23 2.66 2.19 2.28 2.32 2.39 2.65 2.63 2.62 2.79 2.92 2.77 2.80 2.64 2.85 3.20 3.71 4.34 4.68 4.68 4.41 4.17 3.98 3.77 3.56 3.35 3.18 2.96
6.66 6.88 6.93 6.70 6.34 5.78 5.21 5.09 5.07 4.89 4.59 4.49 4.42 4.69 4.09 3.49 2.99 2.44 2.12 2.02 2.15 2.31 2.36 2.40 2.44 2.55 2.52 2.64 2.59 2.61 2.77 3.01 3.61 4.14 4.32 4.07 3.88 3.75 3.72 3.62 3.56 3.43 3.30
6.45 6.40 6.30 5.93 5.54 5.15 4.85 4.72 4.82 4.71 4.66 4.44 4.37 4.07 3.78 3.44 3.20 2.78 2.29 2.04 2.11 2.17 2.16 2.11 2.15 2.38 2.48 2.54 2.59 2.48 2.40 2.55 2.99 3.48 3.78 3.76 3.63 3.54 3.58 3.55 3.51 3.55 3.60
5.67 5.25 4.95 4.78 4.72 4.56 4.35 4.22 4.27 4.18 3.96 3.86 3.85 3.80 3.72 3.43 3.09 2.90 2.58 2.35 2.30 2.09 2.06 2.14 2.20 2.35 2.52 2.57 2.61 2.53 2.42 2.25 2.41 2.72 3.03 3.20 3.36 3.40 3.47 3.64 3.73 3.74 3.75
4.82 4.30 4.06 3.96 3.85 3.68 3.48 3.39 3.40 3.41 3.48 3.52 3.59 3.58 3.52 3.43 3.21 3.19 2.98 2.68 2.53 2.35 2.25 2.23 2.24 2.37 2.58 2.71 2.65 2.85 2.47 2.22 2.19 2.34 2.53 2.66 2.88 3.00 3.12 3.30 3.56 3.70 3.83
4.33 3.87 3.47 3.31 3.04 2.86 2.78 2.84 2.84 2.83 2.95 3.05 3.15 3.25 3.26 3.16 3.05 3.12 3.23 2.96 2.69 2.49 2.42 2.31 2.27 2.37 2.40 2.65 2.92 3.04 2.58 2.34 2.18 2.12 2.21 2.33 2.47 2.60 2.66 2.70 2.95 3.22 3.47
3.73 3.46 3.07 2.73 2.49 2.35 2.27 2.43 2.47 2.47 2.56 2.66 2.73 2.98 2.96 2.85 2.93 3.01 3.15 3.29 3.18 2.79 2.50 2.34 2.31 2.34 2.35 2.44 2.73 2.84 2.44 2.38 2.11 2.00 2.01 2.12 2.24 2.36 2.43 2.45 2.63 2.82 2.94
2.87 2.74 2.56 2.39 2.25 2.19 2.19 2.25 2.24 2.29 2.44 2.49 2.51 2.67 2.79 2.77 2.81 2.82 2.92 3.07 3.19 2.99 2.66 2.44 2.36 2.31 2.34 2.41 2.63 2.24 2.18 2.35 2.15 2.02 1.92 1.89 1.91 2.04 2.15 2.15 2.13 2.20 2.28
2.19 2.20 2.16 2.17 2.13 2.06 2.10 2.17 2.05 2.08 2.20 2.22 2.22 2.32 2.42 2.46 2.60 2.63 2.72 2.83 2.93 2.89 2.68 2.37 2.32 2.31 2.28 2.09 2.30 2.02 2.07 2.24 2.05 1.93 1.84 1.82 1.78 1.81 1.88 1.94 1.93 1.90 1.90
1.86 1.86 1.90 1.93 1.95 1.94 1.98 1.96 1.81 1.85 1.91 2.07 2.17 2.24 2.28 2.31 2.42 2.40 2.42 2.45 2.57 2.75 2.84 2.64 2.45 2.40 2.39 2.28 2.13 1.92 1.81 1.80 1.74 1.84 1.80 1.78 1.71 1.68 1.73 1.74 1.69 1.65 1.62
1.73 1.74 1.76 1.73 1.78 1.89 1.96 1.89 1.74 1.70 1.82 1.95 2.09 2.24 2.21 2.14 2.18 2.23 2.29 2.27 2.29 2.45 2.62 2.58 2.43 2.29 2.29 2.26 2.17 2.07 1.73 1.58 1.55 1.60 1.54 1.49 1.51 1.53 1.49 1.52 1.51 1.48 1.44
1.73 1.69 1.65 1.64 1.70 1.75 1.78 1.73 1.66 1.63 1.69 1.77 1.87 1.92 1.96 1.98 1.93 1.93 1.98 2.04 2.03 2.06 2.29 2.33 2.24 2.18 2.12 2.07 2.12 2.06 1.86 1.86 1.49 1.43 1.35 1.28 1.26 1.27 1.26 1.25 1.28 1.34 1.35
1.65 1.68 1.65 1.61 1.59 1.52 1.42 1.37 1.38 1.43 1.47 1.47 1.53 1.55 1.64 1.77 1.80 1.81 1.76 1.84 1.91 2.06 2.16 2.22 2.12 2.05 2.05 1.94 2.01 2.01 1.96 1.82 1.61 1.34 1.34 1.20 1.13 1.08 1.07 1.09 1.09 1.10 1.15
1.44 1.51 1.56 1.49 1.36 1.22 1.05 1.06 1.14 1.18 1.27 1.29 1.31 1.25 1.25 1.47 1.63 1.59 1.44 1.61 1.83 2.01 2.08 2.10 2.01 1.89 1.82 1.92 1.89 1.81 1.83 1.83 1.72 1.53 1.55 1.34 1.23 1.15 1.15 1.15 1.10 1.06 1.08
1.57 1.51 1.49 1.41 1.28 1.02 1.00 0.97 1.08 1.24 1.34 1.30 1.32 1.30 1.20 1.26 1.36 1.32 1.24 1.37 1.63 1.73 1.85 2.00 1.99 1.89 1.80 1.82 1.87 1.86 1.91 1.99 1.95 1.67 1.72 1.56 1.42 1.41 1.29 1.19 1.16 1.08 1.06
1.67 1.61 1.49 1.43 1.38 1.28 1.14 0.96 0.99 1.14 1.27 1.27 1.29 1.30 1.14 1.07 1.26 1.28 1.29 1.28 1.34 1.37 1.49 1.82 2.02 1.88 1.84 1.91 2.05 1.99 2.09 2.10 1.95 1.82 1.98 1.88 1.59 1.45 1.18 1.09 1.17 1.06 1.05
1.66 1.62 1.53 1.43 1.34 1.13 0.99 0.86 0.88 1.00 1.21 1.26 1.24 1.29 1.34 1.24 1.17 1.24 1.25 1.27 1.32 1.35 1.32 1.38 1.64 1.72 1.75 1.92 2.08 2.14 2.25 2.17 2.02 1.93 2.04 2.08 1.71 1.58 1.30 1.28 1.21 1.05 1.01
1.58 1.52 1.45 1.38 1.31 1.15 0.95 0.82 0.86 1.01 1.21 1.23 1.20 1.19 1.27 1.27 1.25 1.22 1.26 1.39 1.45 1.45 1.24 1.25 1.32 1.45 1.53 1.68 1.83 1.98 2.24 2.41 2.21 1.92 1.90 2.06 1.80 1.69 1.54 1.43 1.26 1.15 1.04
1.51 1.42 1.32 1.31 1.29 1.26 1.13 0.95 0.93 1.00 1.16 1.20 1.27 1.25 1.19 1.21 1.24 1.21 1.31 1.47 1.49 1.47 1.35 1.31 1.44 1.54 1.54 1.65 1.74 1.89 2.18 2.30 2.15 2.02 1.80 1.92 1.84 1.90 1.88 1.53 1.36 1.29 1.20